date,time,SUV Intensity [MED/Hr],UV Index,Daily total [MED],Since Last [MED]
09/04/2023,00:00:23,0.001,0.0,0.0,0.0
09/04/2023,00:01:23,0.000,0.0,0.0,0.0
09/04/2023,00:02:23,0.001,0.0,0.0,0.0
09/04/2023,00:03:23,0.000,0.0,0.0,0.0
09/04/2023,00:04:23,0.000,0.0,0.0,0.0
09/04/2023,00:05:24,0.000,0.0,0.0,0.0
09/04/2023,00:06:23,0.000,0.0,0.0,0.0
09/04/2023,00:07:45,0.000,0.0,0.0,0.0
09/04/2023,00:09:23,0.001,0.0,0.0,0.0
09/04/2023,00:10:23,0.000,0.0,0.0,0.0
09/04/2023,00:11:23,0.000,0.0,0.0,0.0
09/04/2023,00:12:23,0.000,0.0,0.0,0.0
09/04/2023,00:13:23,0.001,0.0,0.0,0.0
09/04/2023,00:14:23,-0.001,0.0,0.0,0.0
09/04/2023,00:15:24,-0.001,0.0,0.0,0.0
09/04/2023,00:16:24,0.000,0.0,0.0,0.0
09/04/2023,00:17:23,-0.000,0.0,0.0,0.0
09/04/2023,00:18:23,-0.000,0.0,0.0,0.0
09/04/2023,00:19:23,0.000,0.0,0.0,0.0
09/04/2023,00:20:23,0.000,0.0,0.0,0.0
09/04/2023,00:21:23,0.000,0.0,0.0,0.0
09/04/2023,00:22:23,0.000,0.0,0.0,0.0
09/04/2023,00:23:23,0.000,0.0,0.0,0.0
09/04/2023,00:24:23,0.000,0.0,0.0,0.0
09/04/2023,00:25:24,0.000,0.0,0.0,0.0
09/04/2023,00:26:23,0.000,0.0,0.0,0.0
09/04/2023,00:27:24,-0.000,0.0,0.0,0.0
09/04/2023,00:28:24,-0.000,0.0,0.0,0.0
09/04/2023,00:29:24,0.000,0.0,0.0,0.0
09/04/2023,00:30:23,-0.001,0.0,0.0,0.0
09/04/2023,00:31:23,0.000,0.0,0.0,0.0
09/04/2023,00:32:23,0.001,0.0,0.0,0.0
09/04/2023,00:33:23,-0.001,0.0,0.0,0.0
09/04/2023,00:34:23,-0.002,0.0,0.0,0.0
09/04/2023,00:35:23,0.001,0.0,0.0,0.0
09/04/2023,00:36:23,0.000,0.0,0.0,0.0
09/04/2023,00:37:23,-0.000,0.0,0.0,0.0
09/04/2023,00:38:23,-0.001,0.0,0.0,0.0
09/04/2023,00:39:24,0.000,0.0,0.0,0.0
09/04/2023,00:40:23,0.000,0.0,0.0,0.0
09/04/2023,00:41:23,-0.000,0.0,0.0,0.0
09/04/2023,00:42:23,0.001,0.0,0.0,0.0
09/04/2023,00:43:23,0.000,0.0,0.0,0.0
09/04/2023,00:44:24,-0.000,0.0,0.0,0.0
09/04/2023,00:45:23,0.001,0.0,0.0,0.0
09/04/2023,00:46:24,0.000,0.0,0.0,0.0
09/04/2023,00:47:23,0.000,0.0,0.0,0.0
09/04/2023,00:48:23,0.000,0.0,0.0,0.0
09/04/2023,00:49:23,-0.000,0.0,0.0,0.0
09/04/2023,00:50:23,0.000,0.0,0.0,0.0
09/04/2023,00:51:23,0.001,0.0,0.0,0.0
09/04/2023,00:52:23,0.001,0.0,0.0,0.0
09/04/2023,00:53:23,-0.001,0.0,0.0,0.0
09/04/2023,00:54:23,0.000,0.0,0.0,0.0
09/04/2023,00:55:23,0.000,0.0,0.0,0.0
09/04/2023,00:56:23,0.000,0.0,0.0,0.0
09/04/2023,00:57:23,0.001,0.0,0.0,0.0
09/04/2023,00:58:24,0.001,0.0,0.0,0.0
09/04/2023,00:59:23,0.000,0.0,0.0,0.0
09/04/2023,01:00:22,-0.000,0.0,0.0,0.0
09/04/2023,01:01:23,0.000,0.0,0.0,0.0
09/04/2023,01:02:23,-0.001,0.0,0.0,0.0
09/04/2023,01:03:22,0.000,0.0,0.0,0.0
09/04/2023,01:04:23,-0.001,0.0,0.0,0.0
09/04/2023,01:05:23,0.001,0.0,0.0,0.0
09/04/2023,01:06:24,0.000,0.0,0.0,0.0
09/04/2023,01:07:23,0.000,0.0,0.0,0.0
09/04/2023,01:08:23,0.000,0.0,0.0,0.0
09/04/2023,01:09:23,0.000,0.0,0.0,0.0
09/04/2023,01:10:23,-0.001,0.0,0.0,0.0
09/04/2023,01:11:23,-0.001,0.0,0.0,0.0
09/04/2023,01:12:23,-0.001,0.0,0.0,0.0
09/04/2023,01:13:23,0.000,0.0,0.0,0.0
09/04/2023,01:14:23,0.000,0.0,0.0,0.0
09/04/2023,01:15:23,-0.000,0.0,0.0,0.0
09/04/2023,01:16:23,0.000,0.0,0.0,0.0
09/04/2023,01:17:24,0.000,0.0,0.0,0.0
09/04/2023,01:18:24,0.000,0.0,0.0,0.0
09/04/2023,01:19:23,-0.001,0.0,0.0,0.0
09/04/2023,01:20:23,0.000,0.0,0.0,0.0
09/04/2023,01:21:24,0.001,0.0,0.0,0.0
09/04/2023,01:22:24,0.000,0.0,0.0,0.0
09/04/2023,01:23:23,0.000,0.0,0.0,0.0
09/04/2023,01:24:24,0.000,0.0,0.0,0.0
09/04/2023,01:25:24,-0.001,0.0,0.0,0.0
09/04/2023,01:26:24,-0.001,0.0,0.0,0.0
09/04/2023,01:27:24,0.001,0.0,0.0,0.0
09/04/2023,01:28:24,0.000,0.0,0.0,0.0
09/04/2023,01:29:23,0.001,0.0,0.0,0.0
09/04/2023,01:30:24,0.000,0.0,0.0,0.0
09/04/2023,01:31:23,0.000,0.0,0.0,0.0
09/04/2023,01:32:23,0.000,0.0,0.0,0.0
09/04/2023,01:33:24,0.000,0.0,0.0,0.0
09/04/2023,01:34:24,0.000,0.0,0.0,0.0
09/04/2023,01:35:25,0.000,0.0,0.0,0.0
09/04/2023,01:36:24,0.000,0.0,0.0,0.0
09/04/2023,01:37:23,0.000,0.0,0.0,0.0
09/04/2023,01:38:23,0.000,0.0,0.0,0.0
09/04/2023,01:39:23,0.001,0.0,0.0,0.0
09/04/2023,01:40:23,0.001,0.0,0.0,0.0
09/04/2023,01:41:23,0.000,0.0,0.0,0.0
09/04/2023,01:42:23,0.000,0.0,0.0,0.0
09/04/2023,01:43:24,0.000,0.0,0.0,0.0
09/04/2023,01:44:23,0.000,0.0,0.0,0.0
09/04/2023,01:45:24,-0.000,0.0,0.0,0.0
09/04/2023,01:46:23,0.001,0.0,0.0,0.0
09/04/2023,01:47:23,0.000,0.0,0.0,0.0
09/04/2023,01:48:24,0.000,0.0,0.0,0.0
09/04/2023,01:49:24,0.000,0.0,0.0,0.0
09/04/2023,01:50:23,0.000,0.0,0.0,0.0
09/04/2023,01:51:24,0.001,0.0,0.0,0.0
09/04/2023,01:52:23,0.001,0.0,0.0,0.0
09/04/2023,01:53:24,0.000,0.0,0.0,0.0
09/04/2023,01:54:23,0.001,0.0,0.0,0.0
09/04/2023,01:55:23,0.001,0.0,0.0,0.0
09/04/2023,01:56:23,0.001,0.0,0.0,0.0
09/04/2023,01:57:23,-0.001,0.0,0.0,0.0
09/04/2023,01:58:23,0.000,0.0,0.0,0.0
09/04/2023,01:59:23,0.000,0.0,0.0,0.0
09/04/2023,02:00:24,0.001,0.0,0.0,0.0
09/04/2023,02:01:23,-0.001,0.0,0.0,0.0
09/04/2023,02:02:24,0.000,0.0,0.0,0.0
09/04/2023,02:03:23,-0.000,0.0,0.0,0.0
09/04/2023,02:04:24,0.000,0.0,0.0,0.0
09/04/2023,02:05:23,-0.000,0.0,0.0,0.0
09/04/2023,02:06:23,0.000,0.0,0.0,0.0
09/04/2023,02:07:23,0.000,0.0,0.0,0.0
09/04/2023,02:08:23,0.000,0.0,0.0,0.0
09/04/2023,02:09:23,0.001,0.0,0.0,0.0
09/04/2023,02:10:23,0.000,0.0,0.0,0.0
09/04/2023,02:11:23,0.000,0.0,0.0,0.0
09/04/2023,02:12:23,0.000,0.0,0.0,0.0
09/04/2023,02:13:23,-0.000,0.0,0.0,0.0
09/04/2023,02:14:23,0.000,0.0,0.0,0.0
09/04/2023,02:15:23,0.000,0.0,0.0,0.0
09/04/2023,02:16:23,0.000,0.0,0.0,0.0
09/04/2023,02:17:23,0.000,0.0,0.0,0.0
09/04/2023,02:18:24,0.000,0.0,0.0,0.0
09/04/2023,02:19:23,0.000,0.0,0.0,0.0
09/04/2023,02:20:24,0.001,0.0,0.0,0.0
09/04/2023,02:21:24,0.000,0.0,0.0,0.0
09/04/2023,02:22:24,0.000,0.0,0.0,0.0
09/04/2023,02:23:24,-0.001,0.0,0.0,0.0
09/04/2023,02:24:24,-0.000,0.0,0.0,0.0
09/04/2023,02:25:23,0.001,0.0,0.0,0.0
09/04/2023,02:26:24,-0.001,0.0,0.0,0.0
09/04/2023,02:27:24,0.000,0.0,0.0,0.0
09/04/2023,02:28:24,0.000,0.0,0.0,0.0
09/04/2023,02:29:24,-0.000,0.0,0.0,0.0
09/04/2023,02:30:25,0.000,0.0,0.0,0.0
09/04/2023,02:31:24,0.001,0.0,0.0,0.0
09/04/2023,02:32:23,0.000,0.0,0.0,0.0
09/04/2023,02:33:23,0.000,0.0,0.0,0.0
09/04/2023,02:34:24,0.001,0.0,0.0,0.0
09/04/2023,02:35:23,0.001,0.0,0.0,0.0
09/04/2023,02:36:23,0.000,0.0,0.0,0.0
09/04/2023,02:37:23,0.000,0.0,0.0,0.0
09/04/2023,02:38:23,0.000,0.0,0.0,0.0
09/04/2023,02:39:23,0.000,0.0,0.0,0.0
09/04/2023,02:40:23,0.000,0.0,0.0,0.0
09/04/2023,02:41:24,0.000,0.0,0.0,0.0
09/04/2023,02:42:23,0.000,0.0,0.0,0.0
09/04/2023,02:43:23,0.000,0.0,0.0,0.0
09/04/2023,02:44:24,0.000,0.0,0.0,0.0
09/04/2023,02:45:24,0.000,0.0,0.0,0.0
09/04/2023,02:46:24,0.001,0.0,0.0,0.0
09/04/2023,02:47:24,0.001,0.0,0.0,0.0
09/04/2023,02:48:24,0.000,0.0,0.0,0.0
09/04/2023,02:49:24,0.000,0.0,0.0,0.0
09/04/2023,02:50:23,0.001,0.0,0.0,0.0
09/04/2023,02:51:24,0.001,0.0,0.0,0.0
09/04/2023,02:52:23,0.000,0.0,0.0,0.0
09/04/2023,02:53:23,0.001,0.0,0.0,0.0
09/04/2023,02:54:23,0.000,0.0,0.0,0.0
09/04/2023,02:55:23,0.000,0.0,0.0,0.0
09/04/2023,02:56:23,0.000,0.0,0.0,0.0
09/04/2023,02:57:23,-0.001,0.0,0.0,0.0
09/04/2023,02:58:23,0.000,0.0,0.0,0.0
09/04/2023,02:59:24,0.000,0.0,0.0,0.0
09/04/2023,03:00:23,0.000,0.0,0.0,0.0
09/04/2023,03:01:23,0.000,0.0,0.0,0.0
09/04/2023,03:02:23,-0.000,0.0,0.0,0.0
09/04/2023,03:03:23,0.000,0.0,0.0,0.0
09/04/2023,03:04:23,0.000,0.0,0.0,0.0
09/04/2023,03:05:23,0.000,0.0,0.0,0.0
09/04/2023,03:06:23,0.001,0.0,0.0,0.0
09/04/2023,03:07:24,-0.001,0.0,0.0,0.0
09/04/2023,03:08:23,0.001,0.0,0.0,0.0
09/04/2023,03:09:24,0.000,0.0,0.0,0.0
09/04/2023,03:10:23,-0.000,0.0,0.0,0.0
09/04/2023,03:11:24,0.001,0.0,0.0,0.0
09/04/2023,03:12:24,0.001,0.0,0.0,0.0
09/04/2023,03:13:23,0.001,0.0,0.0,0.0
09/04/2023,03:14:24,0.001,0.0,0.0,0.0
09/04/2023,03:15:24,0.001,0.0,0.0,0.0
09/04/2023,03:16:24,0.001,0.0,0.0,0.0
09/04/2023,03:17:23,0.001,0.0,0.0,0.0
09/04/2023,03:18:24,-0.000,0.0,0.0,0.0
09/04/2023,03:19:23,0.001,0.0,0.0,0.0
09/04/2023,03:20:24,0.001,0.0,0.0,0.0
09/04/2023,03:21:24,0.001,0.0,0.0,0.0
09/04/2023,03:22:24,0.000,0.0,0.0,0.0
09/04/2023,03:23:23,0.001,0.0,0.0,0.0
09/04/2023,03:24:23,0.001,0.0,0.0,0.0
09/04/2023,03:25:23,0.001,0.0,0.0,0.0
09/04/2023,03:26:23,0.001,0.0,0.0,0.0
09/04/2023,03:27:23,0.001,0.0,0.0,0.0
09/04/2023,03:28:23,0.001,0.0,0.0,0.0
09/04/2023,03:29:24,0.001,0.0,0.0,0.0
09/04/2023,03:30:24,0.001,0.0,0.0,0.0
09/04/2023,03:31:24,0.001,0.0,0.0,0.0
09/04/2023,03:32:24,0.001,0.0,0.0,0.0
09/04/2023,03:33:24,0.000,0.0,0.0,0.0
09/04/2023,03:34:24,0.001,0.0,0.0,0.0
09/04/2023,03:35:24,0.001,0.0,0.0,0.0
09/04/2023,03:36:23,0.001,0.0,0.0,0.0
09/04/2023,03:37:23,0.001,0.0,0.0,0.0
09/04/2023,03:38:23,0.001,0.0,0.0,0.0
09/04/2023,03:39:23,0.001,0.0,0.0,0.0
09/04/2023,03:40:23,0.001,0.0,0.0,0.0
09/04/2023,03:41:23,0.001,0.0,0.0,0.0
09/04/2023,03:42:23,0.000,0.0,0.0,0.0
09/04/2023,03:43:24,0.001,0.0,0.0,0.0
09/04/2023,03:44:24,0.001,0.0,0.0,0.0
09/04/2023,03:45:23,0.001,0.0,0.0,0.0
09/04/2023,03:46:23,0.001,0.0,0.0,0.0
09/04/2023,03:47:23,0.001,0.0,0.0,0.0
09/04/2023,03:48:23,0.001,0.0,0.0,0.0
09/04/2023,03:49:23,0.001,0.0,0.0,0.0
09/04/2023,03:50:24,0.002,0.0,0.0,0.0
09/04/2023,03:51:24,0.001,0.0,0.0,0.0
09/04/2023,03:52:23,0.001,0.0,0.0,0.0
09/04/2023,03:53:23,0.001,0.0,0.0,0.0
09/04/2023,03:54:23,0.001,0.0,0.0,0.0
09/04/2023,03:55:23,0.000,0.0,0.0,0.0
09/04/2023,03:56:24,0.001,0.0,0.0,0.0
09/04/2023,03:57:24,0.001,0.0,0.0,0.0
09/04/2023,03:58:23,0.001,0.0,0.0,0.0
09/04/2023,03:59:23,0.001,0.0,0.0,0.0
09/04/2023,04:00:24,0.001,0.0,0.0,0.0
09/04/2023,04:01:24,0.001,0.0,0.0,0.0
09/04/2023,04:02:23,0.001,0.0,0.0,0.0
09/04/2023,04:03:24,0.002,0.0,0.0,0.0
09/04/2023,04:04:24,0.001,0.0,0.0,0.0
09/04/2023,04:05:24,0.001,0.0,0.0,0.0
09/04/2023,04:06:24,0.001,0.0,0.0,0.0
09/04/2023,04:07:23,0.001,0.0,0.0,0.0
09/04/2023,04:08:23,0.001,0.0,0.0,0.0
09/04/2023,04:09:24,0.001,0.0,0.0,0.0
09/04/2023,04:10:23,0.001,0.0,0.0,0.0
09/04/2023,04:11:24,0.001,0.0,0.0,0.0
09/04/2023,04:12:23,0.001,0.0,0.0,0.0
09/04/2023,04:13:24,0.001,0.0,0.0,0.0
09/04/2023,04:14:24,0.001,0.0,0.0,0.0
09/04/2023,04:15:24,0.001,0.0,0.0,0.0
09/04/2023,04:16:24,0.001,0.0,0.0,0.0
09/04/2023,04:17:24,0.001,0.0,0.0,0.0
09/04/2023,04:18:24,0.001,0.0,0.0,0.0
09/04/2023,04:19:23,0.002,0.0,0.0,0.0
09/04/2023,04:20:24,0.001,0.0,0.0,0.0
09/04/2023,04:21:24,0.001,0.0,0.0,0.0
09/04/2023,04:22:23,0.001,0.0,0.0,0.0
09/04/2023,04:23:23,0.001,0.0,0.0,0.0
09/04/2023,04:24:23,0.001,0.0,0.0,0.0
09/04/2023,04:25:23,0.001,0.0,0.0,0.0
09/04/2023,04:26:23,0.001,0.0,0.0,0.0
09/04/2023,04:27:23,0.001,0.0,0.0,0.0
09/04/2023,04:28:23,0.001,0.0,0.0,0.0
09/04/2023,04:29:46,0.001,0.0,0.0,0.0
09/04/2023,04:31:23,0.001,0.0,0.0,0.0
09/04/2023,04:32:23,0.001,0.0,0.0,0.0
09/04/2023,04:33:23,0.001,0.0,0.0,0.0
09/04/2023,04:34:23,0.001,0.0,0.0,0.0
09/04/2023,04:35:24,0.001,0.0,0.0,0.0
09/04/2023,04:36:23,0.001,0.0,0.0,0.0
09/04/2023,04:37:24,0.001,0.0,0.0,0.0
09/04/2023,04:38:24,0.001,0.0,0.0,0.0
09/04/2023,04:39:24,0.001,0.0,0.0,0.0
09/04/2023,04:40:24,0.001,0.0,0.0,0.0
09/04/2023,04:41:24,0.001,0.0,0.0,0.0
09/04/2023,04:42:23,0.001,0.0,0.0,0.0
09/04/2023,04:43:24,0.001,0.0,0.0,0.0
09/04/2023,04:44:24,0.001,0.0,0.0,0.0
09/04/2023,04:45:24,0.001,0.0,0.0,0.0
09/04/2023,04:46:24,0.001,0.0,0.0,0.0
09/04/2023,04:47:23,0.002,0.0,0.0,0.0
09/04/2023,04:48:23,0.001,0.0,0.0,0.0
09/04/2023,04:49:23,0.001,0.0,0.0,0.0
09/04/2023,04:50:23,0.001,0.0,0.0,0.0
09/04/2023,04:51:23,0.001,0.0,0.0,0.0
09/04/2023,04:52:23,0.001,0.0,0.0,0.0
09/04/2023,04:53:23,0.001,0.0,0.0,0.0
09/04/2023,04:54:24,0.001,0.0,0.0,0.0
09/04/2023,04:55:24,0.001,0.0,0.0,0.0
09/04/2023,04:56:24,0.001,0.0,0.0,0.0
09/04/2023,04:57:24,0.001,0.0,0.0,0.0
09/04/2023,04:58:24,0.001,0.0,0.0,0.0
09/04/2023,04:59:24,0.001,0.0,0.0,0.0
09/04/2023,05:00:24,0.001,0.0,0.0,0.0
09/04/2023,05:01:24,0.001,0.0,0.0,0.0
09/04/2023,05:02:24,0.001,0.0,0.0,0.0
09/04/2023,05:03:23,0.001,0.0,0.0,0.0
09/04/2023,05:04:23,0.001,0.0,0.0,0.0
09/04/2023,05:05:23,0.002,0.0,0.0,0.0
09/04/2023,05:06:24,0.001,0.0,0.0,0.0
09/04/2023,05:07:24,0.002,0.0,0.0,0.0
09/04/2023,05:08:23,0.002,0.0,0.0,0.0
09/04/2023,05:09:24,0.002,0.0,0.0,0.0
09/04/2023,05:10:23,0.001,0.0,0.0,0.0
09/04/2023,05:11:24,0.002,0.0,0.0,0.0
09/04/2023,05:12:23,0.002,0.0,0.0,0.0
09/04/2023,05:13:23,0.002,0.0,0.0,0.0
09/04/2023,05:14:24,0.002,0.0,0.0,0.0
09/04/2023,05:15:23,0.001,0.0,0.0,0.0
09/04/2023,05:16:24,0.001,0.0,0.0,0.0
09/04/2023,05:17:23,0.002,0.0,0.0,0.0
09/04/2023,05:18:24,0.004,0.0,0.0,0.0
09/04/2023,05:19:24,0.003,0.0,0.0,0.0
09/04/2023,05:20:24,0.003,0.0,0.0,0.0
09/04/2023,05:21:24,0.003,0.0,0.0,0.0
09/04/2023,05:22:23,0.003,0.0,0.0,0.0
09/04/2023,05:23:23,0.003,0.0,0.0,0.0
09/04/2023,05:24:24,0.003,0.0,0.0,0.0
09/04/2023,05:25:23,0.003,0.0,0.0,0.0
09/04/2023,05:26:24,0.003,0.0,0.0,0.0
09/04/2023,05:27:24,0.004,0.0,0.0,0.0
09/04/2023,05:28:24,0.005,0.0,0.0,0.0
09/04/2023,05:29:23,0.005,0.0,0.0,0.0
09/04/2023,05:30:24,0.005,0.0,0.0,0.0
09/04/2023,05:31:24,0.005,0.0,0.0,0.0
09/04/2023,05:32:24,0.005,0.0,0.0,0.0
09/04/2023,05:33:24,0.005,0.0,0.0,0.0
09/04/2023,05:34:24,0.006,0.0,0.0,0.0
09/04/2023,05:35:24,0.006,0.0,0.0,0.0
09/04/2023,05:36:24,0.005,0.0,0.0,0.0
09/04/2023,05:37:24,0.006,0.0,0.0,0.0
09/04/2023,05:38:24,0.007,0.0,0.0,0.0
09/04/2023,05:39:24,0.007,0.0,0.0,0.0
09/04/2023,05:40:24,0.008,0.0,0.0,0.0
09/04/2023,05:41:24,0.007,0.0,0.001,0.001
09/04/2023,05:42:24,0.008,0.0,0.001,0.0
09/04/2023,05:43:24,0.009,0.0,0.001,0.0
09/04/2023,05:44:24,0.008,0.0,0.001,0.0
09/04/2023,05:45:24,0.010,0.0,0.001,0.0
09/04/2023,05:46:23,0.009,0.0,0.001,0.0
09/04/2023,05:47:23,0.010,0.0,0.002,0.001
09/04/2023,05:48:23,0.011,0.0,0.002,0.0
09/04/2023,05:49:24,0.011,0.0,0.002,0.0
09/04/2023,05:50:24,0.011,0.0,0.002,0.0
09/04/2023,05:51:23,0.013,0.0,0.002,0.0
09/04/2023,05:52:24,0.013,0.0,0.002,0.0
09/04/2023,05:53:24,0.012,0.0,0.003,0.001
09/04/2023,05:54:23,0.013,0.0,0.003,0.0
09/04/2023,05:55:24,0.013,0.0,0.003,0.0
09/04/2023,05:56:24,0.014,0.0,0.003,0.0
09/04/2023,05:57:24,0.015,0.0,0.004,0.001
09/04/2023,05:58:24,0.015,0.0,0.004,0.0
09/04/2023,05:59:23,0.017,0.0,0.004,0.0
09/04/2023,06:00:24,0.018,0.0,0.004,0.0
09/04/2023,06:01:24,0.018,0.0,0.005,0.001
09/04/2023,06:02:24,0.018,0.0,0.005,0.0
09/04/2023,06:03:23,0.019,0.0,0.005,0.0
09/04/2023,06:04:24,0.020,0.0,0.006,0.001
09/04/2023,06:05:24,0.020,0.0,0.006,0.0
09/04/2023,06:06:24,0.021,0.0,0.006,0.0
09/04/2023,06:07:23,0.022,0.0,0.007,0.001
09/04/2023,06:08:24,0.023,0.0,0.007,0.0
09/04/2023,06:09:24,0.022,0.0,0.007,0.0
09/04/2023,06:10:24,0.025,0.0,0.008,0.001
09/04/2023,06:11:23,0.025,0.0,0.008,0.0
09/04/2023,06:12:24,0.026,0.0,0.009,0.001
09/04/2023,06:13:24,0.026,0.0,0.009,0.0
09/04/2023,06:14:24,0.027,0.0,0.01,0.001
09/04/2023,06:15:23,0.029,0.0,0.01,0.0
09/04/2023,06:16:24,0.029,0.0,0.01,0.0
09/04/2023,06:17:24,0.030,0.0,0.011,0.001
09/04/2023,06:18:24,0.030,0.0,0.011,0.0
09/04/2023,06:19:24,0.032,0.0,0.012,0.001
09/04/2023,06:20:24,0.033,0.0,0.013,0.001
09/04/2023,06:21:23,0.034,0.0,0.013,0.0
09/04/2023,06:22:23,0.035,0.0,0.014,0.001
09/04/2023,06:23:23,0.036,0.0,0.014,0.0
09/04/2023,06:24:24,0.038,0.0,0.015,0.001
09/04/2023,06:25:24,0.039,0.0,0.016,0.001
09/04/2023,06:26:24,0.040,0.0,0.016,0.0
09/04/2023,06:27:23,0.041,0.0,0.017,0.001
09/04/2023,06:28:23,0.042,0.0,0.018,0.001
09/04/2023,06:29:24,0.043,0.0,0.018,0.0
09/04/2023,06:30:24,0.044,0.0,0.019,0.001
09/04/2023,06:31:23,0.046,0.0,0.02,0.001
09/04/2023,06:32:23,0.046,0.0,0.02,0.0
09/04/2023,06:33:24,0.048,0.0,0.021,0.001
09/04/2023,06:34:23,0.050,0.0,0.022,0.001
09/04/2023,06:35:24,0.050,0.0,0.023,0.001
09/04/2023,06:36:24,0.051,0.0,0.024,0.001
09/04/2023,06:37:24,0.053,0.0,0.025,0.001
09/04/2023,06:38:24,0.055,0.0,0.025,0.0
09/04/2023,06:39:24,0.056,0.0,0.026,0.001
09/04/2023,06:40:24,0.057,0.0,0.027,0.001
09/04/2023,06:41:24,0.059,0.0,0.028,0.001
09/04/2023,06:42:23,0.061,0.0,0.029,0.001
09/04/2023,06:43:23,0.062,0.0,0.03,0.001
09/04/2023,06:44:24,0.064,0.0,0.031,0.001
09/04/2023,06:45:23,0.065,0.0,0.032,0.001
09/04/2023,06:46:24,0.067,0.0,0.034,0.002
09/04/2023,06:47:24,0.069,0.0,0.035,0.001
09/04/2023,06:48:24,0.071,0.0,0.036,0.001
09/04/2023,06:49:24,0.072,0.0,0.037,0.001
09/04/2023,06:50:24,0.074,0.0,0.038,0.001
09/04/2023,06:51:24,0.077,0.0,0.04,0.002
09/04/2023,06:52:24,0.078,0.0,0.041,0.001
09/04/2023,06:53:24,0.079,0.0,0.042,0.001
09/04/2023,06:54:23,0.081,0.0,0.043,0.001
09/04/2023,06:55:23,0.083,0.0,0.045,0.002
09/04/2023,06:56:24,0.085,0.0,0.046,0.001
09/04/2023,06:57:24,0.087,0.0,0.048,0.002
09/04/2023,06:58:24,0.089,0.0,0.049,0.001
09/04/2023,06:59:24,0.091,0.0,0.051,0.002
09/04/2023,07:00:24,0.094,0.0,0.052,0.001
09/04/2023,07:01:23,0.096,0.0,0.054,0.002
09/04/2023,07:02:23,0.097,0.0,0.055,0.001
09/04/2023,07:03:23,0.100,0.0,0.057,0.002
09/04/2023,07:04:24,0.102,0.0,0.059,0.002
09/04/2023,07:05:24,0.106,0.0,0.06,0.001
09/04/2023,07:06:24,0.107,0.0,0.062,0.002
09/04/2023,07:07:23,0.110,0.0,0.064,0.002
09/04/2023,07:08:23,0.112,0.0,0.066,0.002
09/04/2023,07:09:24,0.115,0.0,0.068,0.002
09/04/2023,07:10:24,0.115,0.0,0.07,0.002
09/04/2023,07:11:24,0.116,0.0,0.072,0.002
09/04/2023,07:12:24,0.116,0.0,0.074,0.002
09/04/2023,07:13:24,0.116,0.0,0.076,0.002
09/04/2023,07:14:24,0.115,0.0,0.077,0.001
09/04/2023,07:15:24,0.116,0.0,0.079,0.002
09/04/2023,07:16:23,0.116,0.0,0.081,0.002
09/04/2023,07:17:23,0.116,0.0,0.083,0.002
09/04/2023,07:18:24,0.109,0.0,0.085,0.002
09/04/2023,07:19:24,0.101,0.0,0.087,0.002
09/04/2023,07:20:24,0.095,0.0,0.088,0.001
09/04/2023,07:21:24,0.090,0.0,0.09,0.002
09/04/2023,07:22:24,0.091,0.0,0.091,0.001
09/04/2023,07:23:25,0.090,0.0,0.093,0.002
09/04/2023,07:24:26,0.095,0.0,0.095,0.002
09/04/2023,07:25:24,0.093,0.0,0.096,0.001
09/04/2023,07:26:24,0.091,0.0,0.098,0.002
09/04/2023,07:27:24,0.093,0.0,0.099,0.001
09/04/2023,07:28:23,0.096,0.0,0.101,0.002
09/04/2023,07:29:24,0.096,0.0,0.102,0.001
09/04/2023,07:30:24,0.100,0.0,0.104,0.002
09/04/2023,07:31:24,0.103,0.0,0.106,0.002
09/04/2023,07:32:25,0.103,0.0,0.107,0.001
09/04/2023,07:33:25,0.107,0.0,0.109,0.002
09/04/2023,07:34:24,0.112,0.0,0.111,0.002
09/04/2023,07:35:24,0.115,0.0,0.113,0.002
09/04/2023,07:36:24,0.113,0.0,0.115,0.002
09/04/2023,07:37:24,0.117,0.0,0.117,0.002
09/04/2023,07:38:23,0.118,0.0,0.119,0.002
09/04/2023,07:39:24,0.125,0.0,0.121,0.002
09/04/2023,07:40:24,0.129,0.0,0.123,0.002
09/04/2023,07:41:24,0.132,0.0,0.125,0.002
09/04/2023,07:42:24,0.134,0.0,0.127,0.002
09/04/2023,07:43:23,0.130,0.0,0.129,0.002
09/04/2023,07:44:24,0.129,0.0,0.131,0.002
09/04/2023,07:45:24,0.132,0.0,0.134,0.003
09/04/2023,07:46:24,0.132,0.0,0.136,0.002
09/04/2023,07:47:24,0.138,0.0,0.138,0.002
09/04/2023,07:48:24,0.145,0.0,0.14,0.002
09/04/2023,07:49:23,0.144,0.0,0.143,0.003
09/04/2023,07:50:23,0.136,0.0,0.145,0.002
09/04/2023,07:51:24,0.137,0.0,0.147,0.002
09/04/2023,07:52:24,0.147,0.0,0.15,0.003
09/04/2023,07:53:24,0.146,0.0,0.152,0.002
09/04/2023,07:54:24,0.145,0.0,0.155,0.003
09/04/2023,07:55:24,0.153,0.0,0.157,0.002
09/04/2023,07:56:24,0.163,0.0,0.16,0.003
09/04/2023,07:57:24,0.162,0.0,0.162,0.002
09/04/2023,07:58:24,0.166,0.0,0.165,0.003
09/04/2023,07:59:24,0.171,0.0,0.168,0.003
09/04/2023,08:00:24,0.171,0.0,0.171,0.003
09/04/2023,08:01:23,0.171,0.0,0.174,0.003
09/04/2023,08:02:24,0.162,0.0,0.176,0.002
09/04/2023,08:03:23,0.163,0.0,0.179,0.003
09/04/2023,08:04:24,0.167,0.0,0.182,0.003
09/04/2023,08:05:24,0.183,0.0,0.185,0.003
09/04/2023,08:06:24,0.175,0.0,0.188,0.003
09/04/2023,08:07:24,0.192,0.0,0.191,0.003
09/04/2023,08:08:24,0.196,0.0,0.194,0.003
09/04/2023,08:09:24,0.200,0.0,0.197,0.003
09/04/2023,08:10:24,0.207,0.0,0.201,0.004
09/04/2023,08:11:24,0.201,0.0,0.204,0.003
09/04/2023,08:12:24,0.205,0.0,0.208,0.004
09/04/2023,08:13:24,0.208,0.0,0.211,0.003
09/04/2023,08:14:24,0.220,1.0,0.215,0.004
09/04/2023,08:15:23,0.229,1.0,0.218,0.003
09/04/2023,08:16:23,0.232,1.0,0.222,0.004
09/04/2023,08:17:24,0.251,1.0,0.226,0.004
09/04/2023,08:18:24,0.245,1.0,0.23,0.004
09/04/2023,08:19:24,0.245,1.0,0.234,0.004
09/04/2023,08:20:24,0.264,1.0,0.239,0.005
09/04/2023,08:21:24,0.279,1.0,0.243,0.004
09/04/2023,08:22:24,0.247,1.0,0.248,0.005
09/04/2023,08:23:24,0.229,1.0,0.252,0.004
09/04/2023,08:24:24,0.222,1.0,0.255,0.003
09/04/2023,08:25:24,0.227,1.0,0.259,0.004
09/04/2023,08:26:24,0.223,1.0,0.263,0.004
09/04/2023,08:27:24,0.249,1.0,0.267,0.004
09/04/2023,08:28:28,0.254,1.0,0.271,0.004
09/04/2023,08:29:25,0.265,1.0,0.275,0.004
09/04/2023,08:30:24,0.270,1.0,0.28,0.005
09/04/2023,08:31:24,0.267,1.0,0.284,0.004
09/04/2023,08:32:24,0.282,1.0,0.289,0.005
09/04/2023,08:33:24,0.269,1.0,0.293,0.004
09/04/2023,08:34:24,0.285,1.0,0.298,0.005
09/04/2023,08:35:24,0.320,1.0,0.303,0.005
09/04/2023,08:36:24,0.352,1.0,0.309,0.006
09/04/2023,08:37:24,0.345,1.0,0.314,0.005
09/04/2023,08:38:24,0.338,1.0,0.32,0.006
09/04/2023,08:39:24,0.326,1.0,0.326,0.006
09/04/2023,08:40:24,0.318,1.0,0.331,0.005
09/04/2023,08:41:24,0.320,1.0,0.336,0.005
09/04/2023,08:42:24,0.321,1.0,0.342,0.006
09/04/2023,08:43:24,0.353,1.0,0.347,0.005
09/04/2023,08:44:25,0.359,1.0,0.353,0.006
09/04/2023,08:45:24,0.364,1.0,0.359,0.006
09/04/2023,08:46:24,0.361,1.0,0.365,0.006
09/04/2023,08:47:24,0.364,1.0,0.371,0.006
09/04/2023,08:48:24,0.377,1.0,0.378,0.007
09/04/2023,08:49:24,0.379,1.0,0.384,0.006
09/04/2023,08:50:24,0.363,1.0,0.39,0.006
09/04/2023,08:51:24,0.333,1.0,0.396,0.006
09/04/2023,08:52:24,0.324,1.0,0.401,0.005
09/04/2023,08:53:24,0.358,1.0,0.407,0.006
09/04/2023,08:54:24,0.357,1.0,0.413,0.006
09/04/2023,08:55:24,0.341,1.0,0.419,0.006
09/04/2023,08:56:24,0.335,1.0,0.424,0.005
09/04/2023,08:57:24,0.348,1.0,0.43,0.006
09/04/2023,08:58:24,0.362,1.0,0.436,0.006
09/04/2023,08:59:24,0.362,1.0,0.442,0.006
09/04/2023,09:00:24,0.367,1.0,0.448,0.006
09/04/2023,09:01:24,0.365,1.0,0.454,0.006
09/04/2023,09:02:24,0.360,1.0,0.46,0.006
09/04/2023,09:03:24,0.369,1.0,0.466,0.006
09/04/2023,09:04:24,0.369,1.0,0.472,0.006
09/04/2023,09:05:24,0.342,1.0,0.478,0.006
09/04/2023,09:06:24,0.332,1.0,0.484,0.006
09/04/2023,09:07:24,0.363,1.0,0.49,0.006
09/04/2023,09:08:24,0.405,1.0,0.496,0.006
09/04/2023,09:09:24,0.482,1.0,0.504,0.008
09/04/2023,09:10:24,0.477,1.0,0.512,0.008
09/04/2023,09:11:24,0.432,1.0,0.519,0.007
09/04/2023,09:12:24,0.417,1.0,0.526,0.007
09/04/2023,09:13:24,0.441,1.0,0.533,0.007
09/04/2023,09:14:24,0.445,1.0,0.541,0.008
09/04/2023,09:15:24,0.446,1.0,0.548,0.007
09/04/2023,09:16:24,0.461,1.0,0.556,0.008
09/04/2023,09:17:24,0.459,1.0,0.563,0.007
09/04/2023,09:18:24,0.445,1.0,0.571,0.008
09/04/2023,09:19:25,0.448,1.0,0.578,0.007
09/04/2023,09:20:24,0.461,1.0,0.586,0.008
09/04/2023,09:21:24,0.476,1.0,0.594,0.008
09/04/2023,09:22:24,0.549,1.0,0.602,0.008
09/04/2023,09:23:24,0.531,1.0,0.611,0.009
09/04/2023,09:24:24,0.552,1.0,0.62,0.009
09/04/2023,09:25:24,0.555,1.0,0.63,0.01
09/04/2023,09:26:24,0.523,1.0,0.639,0.009
09/04/2023,09:27:24,0.510,1.0,0.647,0.008
09/04/2023,09:28:24,0.513,1.0,0.656,0.009
09/04/2023,09:29:24,0.546,1.0,0.665,0.009
09/04/2023,09:30:24,0.570,1.0,0.674,0.009
09/04/2023,09:31:25,0.559,1.0,0.684,0.01
09/04/2023,09:32:24,0.570,1.0,0.693,0.009
09/04/2023,09:33:24,0.821,2.0,0.705,0.012
09/04/2023,09:34:24,0.643,1.0,0.717,0.012
09/04/2023,09:35:24,0.682,2.0,0.728,0.011
09/04/2023,09:36:24,0.746,2.0,0.74,0.012
09/04/2023,09:37:24,0.760,2.0,0.753,0.013
09/04/2023,09:38:24,0.776,2.0,0.766,0.013
09/04/2023,09:39:24,0.694,2.0,0.778,0.012
09/04/2023,09:40:24,0.886,2.0,0.791,0.013
09/04/2023,09:41:24,0.747,2.0,0.803,0.012
09/04/2023,09:42:24,0.882,2.0,0.816,0.013
09/04/2023,09:43:24,0.770,2.0,0.831,0.015
09/04/2023,09:44:25,0.680,2.0,0.842,0.011
09/04/2023,09:45:25,0.761,2.0,0.854,0.012
09/04/2023,09:46:24,0.907,2.0,0.869,0.015
09/04/2023,09:47:24,0.894,2.0,0.884,0.015
09/04/2023,09:48:24,0.819,2.0,0.898,0.014
09/04/2023,09:49:23,0.707,2.0,0.911,0.013
09/04/2023,09:50:24,0.752,2.0,0.925,0.014
09/04/2023,09:51:24,0.748,2.0,0.937,0.012
09/04/2023,09:52:25,0.707,2.0,0.949,0.012
09/04/2023,09:53:24,0.727,2.0,0.961,0.012
09/04/2023,09:54:24,0.719,2.0,0.973,0.012
09/04/2023,09:55:23,0.935,2.0,0.986,0.013
09/04/2023,09:56:24,0.951,2.0,1.001,0.015
09/04/2023,09:57:24,0.742,2.0,1.016,0.015
09/04/2023,09:58:24,0.800,2.0,1.029,0.013
09/04/2023,09:59:24,0.900,2.0,1.043,0.014
09/04/2023,10:00:24,0.830,2.0,1.057,0.014
09/04/2023,10:01:24,0.959,2.0,1.072,0.015
09/04/2023,10:02:24,0.969,2.0,1.088,0.016
09/04/2023,10:03:24,1.011,2.0,1.105,0.017
09/04/2023,10:04:24,0.988,2.0,1.121,0.016